INTELSAT 22 (IS-22)

Last updated on Tue Jul 01 2025 00:02:45 GMT+0000 (Coordinated Universal Time)

1 38098U 12011A 25181.51076737 -.00000059 00000+0 00000+0 0 9999 2 38098 0.0096 62.6692 0001665 36.1905 75.9261 1.00271637 3660
UTC large
Height (km)
Speed (km/s)
/
Latitude / Longitude
Inclination (degrees)
Orbital Period (minutes)
Azimuth
Elevation
Range (km)
Doppler Factor

Next 0 passes for location: London (51.5072 / 0.1276)

Sorry there are no passes over London.